Regional Weather Roundup
Issued by NWS

Home | Current Version | Previous Version | Text Only | Print | Product List | Glossary On
Versions: 1 2 3 4 5 6 7 8 9 10 11 12 13 14 15 16 17 18 19 20 21 22 23 24 25 26 27
000
ASUS44 KLIX 251214
RWRLA
LOUISIANA WEATHER ROUNDUP
NATIONAL WEATHER SERVICE NEW ORLEANS LA
700 AM CDT SUN JUN 25 2017

NOTE: "FAIR" INDICATES FEW OR NO CLOUDS BELOW 12,000 FEET WITH NO
      SIGNIFICANT WEATHER AND/OR OBSTRUCTIONS TO VISIBILITY.
      SKY/WX - SKY CONDITION AND SIGNIFICANT WEATHER.
      TMP - AIR TEMPERATURE.    DP   - DEWPOINT TEMPERATURE.
      RH  - RELATIVE HUMIDITY.  PRES - PRESSURE.
      HX  - HEAT INDEX.         WCI  - WIND CHILL INDEX.

*  THESE STATIONS ARE NOT NWS OR FAA STATIONS AND ARE NOT UNDER
   NWS QUALITY CONTROL.

LAZ040-048-061>063-065-066-069-251300-
SOUTHEAST LOUISIANA

CITY           SKY/WX    TMP DP  RH WIND       PRES   REMARKS
N.O. INTL ARPT PTSUNNY   77  76  96 CALM      30.10R
6HR MIN TEMP:  73; 6HR MAX TEMP:  77;

N.O. LAKEFRONT CLOUDY    80  76  87 N6        30.11R
6HR MIN TEMP:  78; 6HR MAX TEMP:  80;

N.O. DOWNTOWN*   N/A     78  75  90 N3          N/A
6HR MIN TEMP:  78; 6HR MAX TEMP:  80;

RESERVE*       CLOUDY    77  75  94 N3        30.11R FOG
6HR MIN TEMP:  75; 6HR MAX TEMP:  77; 6HR PCP:  0.01;

SLIDELL        SUNNY     75  73  93 N6        30.10R
6HR MIN TEMP:  74; 6HR MAX TEMP:  75;

BATON ROUGE    SUNNY     74  73  97 CALM      30.11R
6HR MIN TEMP:  73; 6HR MAX TEMP:  75;

BOOTHVILLE     CLOUDY    80  78  94 CALM      30.10R
6HR MIN TEMP:  79; 6HR MAX TEMP:  81;

BELLE CHASSE   CLOUDY   N/A N/A N/A CALM      30.09R
BOGALUSA*      FAIR      75  72  88 CALM      30.14R
6HR MIN TEMP:  75; 6HR MAX TEMP:  77;

GALLIANO*      CLOUDY    77  74  91 CALM      30.09S FOG
6HR MIN TEMP:  75; 6HR MAX TEMP:  77;

NEW ROADS*       N/A     73  72  96 NE3       30.12R
6HR MIN TEMP:  72; 6HR MAX TEMP:  73;

GONZALES*      FOG       74  74 100 CALM      30.09F VSB 1/4
6HR MIN TEMP:  73; 6HR MAX TEMP:  74; 6HR PCP:  0.03;

HAMMOND*       SUNNY     73  72  94 CALM      30.11R
HOUMA*         NOT AVBL
PORT FOURCHON* MOSUNNY  N/A N/A N/A N5        30.09R

$$

LAZ041-044-053-054-251300-
SOUTHWEST LOUISIANA

CITY           SKY/WX    TMP DP  RH WIND       PRES   REMARKS
LAKE CHARLES   PTCLDY    76  76 100 NE5       30.11R
6HR MIN TEMP:  76; 6HR MAX TEMP:  78;

LAFAYETTE      CLOUDY    74  74 100 N7        30.11R FOG
6HR MIN TEMP:  74; 6HR MAX TEMP:  75;

PATTERSON      MOCLDY    76  75  97 NE5       30.11R FOG
6HR MIN TEMP:  75; 6HR MAX TEMP:  76; 6HR PCP:  0.01;

SALT POINT       N/A     76  75  97 CALM      30.08R
6HR MIN TEMP:  76; 6HR MAX TEMP:  76;

NEW IBERIA     CLOUDY    76  73  91 NE5       30.11R FOG
6HR MIN TEMP:  74; 6HR MAX TEMP:  76;

CHENAULT AIRPK CLEAR     74  73  96 NE3       30.11R
6HR MIN TEMP:  74; 6HR MAX TEMP:  76;


$$

LAZ027-028-251300-
CENTRAL LOUISIANA

CITY           SKY/WX    TMP DP  RH WIND       PRES   REMARKS
FORT POLK      PTCLDY    72  69  93 NE6       30.14R
6HR MIN TEMP:  72; 6HR MAX TEMP:  73;

ALEXANDRIA INT CLOUDY    70  69  97 NE5       30.13R
6HR MIN TEMP:  70; 6HR MAX TEMP:  72;

ALEXANDRIA     CLOUDY    71  70  96 VRB3      30.15R
6HR MIN TEMP:  71; 6HR MAX TEMP:  74;


$$

LAZ001-002-251300-
NORTHWEST LOUISIANA

CITY           SKY/WX    TMP DP  RH WIND       PRES   REMARKS
SHREVEPORT     LGT RAIN  71  67  87 E5        30.18F
6HR MIN TEMP:  71; 6HR MAX TEMP:  76; 6HR PCP:  0.01;

BARKSDALE AFB  CLOUDY    71  65  80 CALM      30.19R
6HR MIN TEMP:  71; 6HR MAX TEMP:  74;

DTN SHREVEPORT CLOUDY    73  65  75 E5        30.19R
6HR MIN TEMP:  73; 6HR MAX TEMP:  75;


$$

LAZ014-016-251300-
NORTHEAST LOUISIANA

CITY           SKY/WX    TMP DP  RH WIND       PRES   REMARKS
MONROE         LGT RAIN  70  67  90 N8        30.20R
6HR MIN TEMP:  69; 6HR MAX TEMP:  75;

TALLULAH       CLOUDY    71  67  87 N7        30.19R
6HR MIN TEMP:  71; 6HR MAX TEMP:  75; 6HR PCP: TRACE;


$$





USA.gov is the U.S. government's official web portal to all federal, state and local government web resources and services.